Location: Treviso
(45.6669°N, 12.2430°E)
Time: 00:38:19
(UTC+02:00)

ISS - Pass Details

Date: 25 May 2017
Orbit: 402 x 408 km, 51.6° (Epoch: 30 May)

Event Time Altitude Azimuth Distance (km) Brightness Sun altitude
Rises 01:04:22 0° 285° (WNW) 2,332 0.2 -23.4°
Reaches altitude 10° 01:06:39 10° 297° (WNW) 1,471 -0.7 -23.4°
Maximum altitude 01:09:33 27° 359° (N) 813 -1.6 -23.4°
Drops below altitude 10° 01:12:26 10° 60° (ENE) 1,468 -0.6 -23.4°
Sets 01:14:42 0° 73° (ENE) 2,326 0.3 -23.4°
